Change the Weather History Date:

Sunday, November 18, 2012

  Actual Average Record
Temperature  
Mean Temperature 66 °F -  
Max Temperature 75 °F - - ()
Min Temperature 53 °F - - ()
Cooling Degree Days 1    
Growing Degree Days 16 (Base 50)    
Moisture  
Dew Point 54 °F    
Average Humidity 73    
Maximum Humidity 100    
Minimum Humidity 47    
Precipitation  
Precipitation 0.00 in - - ()
Sea Level Pressure  
Sea Level Pressure 30.22 in    
Wind  
Wind Speed 6 mph ()    
Max Wind Speed 17 mph    
Max Gust Speed -    
Visibility 6.2 miles    
Events      
T = Trace of Precipitation, MM = Missing Value Source: Averaged Metar Reports

Daily Weather History Graph

Daily Weather History Graph

Search for Another Location

Airport or City:

Trip Planner

Search our weather history database for the weather conditions in past years. The results will help you decide how hot, cold, wet, or windy it might be!

Date:

Astronomy

Nov. 18, 2012 Rise Set
Actual Time 6:21 AM EAT 6:27 PM EAT
Civil Twilight 5:59 AM EAT 6:49 PM EAT
Nautical Twilight 5:33 AM EAT 7:14 PM EAT
Astronomical Twilight 5:08 AM EAT 7:40 PM EAT
Moon 10:42 AM EAT (11/18) 11:08 PM EAT (11/18)
Length of Visible Light 12h 49m
Length of Day
12h 06m
Waxing Crescent, 26% of the Moon is Illuminated
Nov 18
Waxing Crescent
Nov 20
First Quarter
Nov 28
Full
Dec 6
Last Quarter
Dec 13
New

Hourly Weather History & Observations

Time (EAT) Temp. Dew Point Humidity Pressure Visibility Wind Dir Wind Speed Gust Speed Precip Events Conditions
12:00 AM 59.0 °F 57.2 °F 94% 30.24 in 6.2 mi NE 3.5 mph - N/A   Mostly Cloudy
1:00 AM 60.8 °F 55.4 °F 82% - - East 9.2 mph - N/A   Scattered Clouds
2:00 AM 57.2 °F 55.4 °F 94% 30.21 in - ENE 5.8 mph - N/A   Clear
3:00 AM 57.2 °F 53.6 °F 88% 30.21 in - ENE 4.6 mph - N/A   Clear
4:00 AM 57.2 °F 53.6 °F 88% 30.21 in - ENE 4.6 mph - N/A   Clear
5:00 AM 57.2 °F 53.6 °F 88% 30.21 in - East 5.8 mph - N/A   Clear
7:00 AM 59.0 °F 51.8 °F 77% 30.24 in 6.2 mi ENE 10.4 mph - N/A   Mostly Cloudy
8:00 AM 60.8 °F 55.4 °F 82% 30.27 in 6.2 mi NNE 5.8 mph - N/A   Mostly Cloudy
9:00 AM 66.2 °F 55.4 °F 68% 30.30 in 6.2 mi NE 6.9 mph - N/A   Mostly Cloudy
10:00 AM 66.2 °F 53.6 °F 64% - 6.2 mi ENE 17.3 mph - N/A   Mostly Cloudy
11:00 AM 71.6 °F 53.6 °F 53% 30.30 in 6.2 mi NNE 17.3 mph - N/A   Mostly Cloudy
12:00 PM 71.6 °F 53.6 °F 53% 30.27 in - North - - N/A   Mostly Cloudy
1:00 PM 73.4 °F 51.8 °F 47% 30.24 in 6.2 mi North - - N/A   Mostly Cloudy
2:00 PM 73.4 °F 55.4 °F 53% 30.21 in 6.2 mi NE 15.0 mph - N/A   Mostly Cloudy
3:00 PM 75.2 °F 55.4 °F 50% 30.18 in 6.2 mi NE 11.5 mph - N/A   Mostly Cloudy
4:00 PM 73.4 °F 55.4 °F 53% 30.15 in 6.2 mi NE 13.8 mph - N/A   Mostly Cloudy
5:00 PM 73.4 °F 53.6 °F 50% 30.15 in 6.2 mi ENE 12.7 mph - N/A   Mostly Cloudy
6:00 PM 66.2 °F 55.4 °F 68% 30.18 in 6.2 mi East 8.1 mph - N/A   Mostly Cloudy
7:00 PM 60.8 °F 55.4 °F 82% 30.18 in 6.2 mi East 8.1 mph - N/A   Mostly Cloudy
8:00 PM 60.8 °F 55.4 °F 82% - 6.2 mi Calm Calm - N/A   Mostly Cloudy
9:00 PM 59.0 °F 55.4 °F 88% 30.24 in 6.2 mi Calm Calm - N/A   Mostly Cloudy
10:00 PM 57.2 °F 50.0 °F 77% - 6.2 mi Calm Calm - N/A   Mostly Cloudy
11:00 PM 53.6 °F 53.6 °F 100% 30.24 in - NE 3.5 mph - N/A   Clear